Vertical_Velocity
-0 9 -1 1 1 2 3 3 2 -6 -5 12 -1 -1 -3 -4 1 -1 1 -2 1 1 -1 -1 -1 1 4 3 1 4 1 3 1 3 0 -0 -0 0 2 3 2 1 1 -0
6 -0 -1 0 0 2 1 2 -6 -5 -1 8 -2 -7 -5 -1 -4 4 -1 1 -0 -1 0 1 2 -1 -5 -3 -0 2 5 8 -3 -1 2 -3 0 -2 -3 2 -0 4 3 7
3 5 -0 1 0 2 -1 3 -2 7 -4 -3 4 -7 -0 2 1 0 2 -0 -2 0 3 2 1 2 -1 1 3 -0 2 -2 1 9 4 4 10 0 2 -1 -1 2 2 3
-0 -0 1 1 0 4 2 1 1 1 5 3 0 -7 -3 -2 -1 1 0 0 2 -1 -2 -1 1 1 -0 -0 -1 0 -1 -0 1 4 4 9 10 4 3 2 7 -1 3 5
6 1 1 2 -4 1 -5 1 2 2 2 12 -9 17 2 1 3 0 1 1 -2 -2 -5 -1 -2 -3 -2 -3 -5 -3 -4 -4 -2 -1 1 3 5 9 12 -0 -7 -4 -7 -3
-3 -3 3 -3 -2 1 0 4 2 2 5 9 -9 11 -7 3 1 2 2 1 1 1 0 -2 -2 -4 -4 -3 1 -5 -5 -3 -2 -1 -1 -2 -2 -5 -4 -14 8 -11 -5 4
1 -3 0 1 6 3 6 6 -3 2 9 -8 0 4 -14 1 -0 1 -0 1 1 2 -0 -1 -1 -1 -4 -5 -4 3 -2 -4 -4 -4 -4 -2 -4 -13 -10 2 2 2 -11 0
3 -3 2 1 -2 4 -3 3 3 3 3 -4 1 -3 -2 0 -1 -1 -1 -1 1 -0 -0 1 4 -4 -4 -7 -5 -1 -12 3 3 5 4 18 17 -2 12 8 -6 -1 4 -1
4 -3 2 1 -0 3 -2 4 -4 6 -0 14 -5 -12 13 3 3 2 1 0 -1 -0 -2 -1 1 -4 6 -5 -3 -3 1 -10 -2 3 1 -1 -2 2 -3 3 4 5 5 0
-5 1 -1 -2 5 3 8 -1 9 4 1 -1 -7 -5 -6 3 1 1 1 -0 -1 0 -1 -0 -2 -2 7 3 10 5 2 7 3 6 1 5 3 5 9 -7 -3 -2 10 -4
-0 10 -7 6 1 -4 8 4 4 6 7 3 -0 -11 4 1 -1 -1 -1 -1 -1 -0 1 -2 -2 1 5 1 -2 -0 2 4 4 13 1 3 1 5 7 3 11 -0 -2 -3
-5 1 1 -13 -4 1 2 -3 2 12 -13 -2 4 -39 -1 -1 -1 2 -3 1 -2 -3 0 -0 -1 2 2 -6 -2 2 0 0 -5 11 30 1 -19 1 -3 12 -1 1 4 4
-3 -0 1 -1 6 3 4 -4 -0 1 4 -6 9 -16 2 -0 -1 -6 2 -3 -4 -2 -1 -4 -0 1 -1 -1 -4 1 1 -1 11 -22 11 -7 -15 -20 6 -2 5 3 -0 4
-3 1 -3 -4 3 4 2 1 0 2 6 -6 -10 -13 -10 -9 -2 -7 -7 -3 -1 -1 -2 0 -0 7 -3 -0 0 -0 -3 -4 -3 1 -2 0 2 4 1 3 10 11 0 3
0 0 7 -4 -1 3 -1 -1 -2 7 -8 12 -21 2 -10 -4 1 -2 -1 -3 -3 -5 -2 -2 -0 1 3 1 -0 3 2 0 -2 -4 -3 -0 6 2 4 3 0 1 5 -9
0 -1 3 -3 -1 3 2 -1 0 -0 -3 2 3 -12 0 -8 -1 -1 -3 0 -1 -3 1 -3 1 1 3 3 1 -0 4 4 4 4 3 5 2 5 5 5 2 4 4 1
-0 0 2 -3 1 1 3 -13 -3 -4 0 1 4 -19 -1 -5 -2 -1 -3 -1 1 -2 2 0 1 2 2 -2 1 -2 -2 0 2 1 5 2 -0 2 3 6 7 1 5 3
-1 1 0 -2 3 6 -7 0 -2 -1 -4 -0 1 -3 1 0 -2 -2 3 3 2 2 4 1 2 2 -0 -1 -2 -1 3 0 -1 -0 -1 1 -2 -0 1 3 1 5 -1 2
0 0 1 1 -0 -11 -4 -8 4 3 -13 -1 -0 -1 -2 -2 -3 -12 7 4 5 1 -2 -2 1 -2 -3 -1 -4 -4 -4 4 2 1 -3 -2 1 2 -4 2 4 2 2 0
6 3 6 5 4 -1 6 2 -1 1 -8 -0 1 -1 1 -2 3 -5 -16 -8 -9 -1 3 6 4 -3 -1 -3 0 -1 0 1 3 1 2 -2 -3 1 -1 1 0 3 4 4
3 3 -1 -1 -0 -7 -2 -0 -1 17 4 -0 2 1 0 4 0 -3 -2 -10 -3 0 3 1 -1 -0 -1 2 -4 -2 -4 1 -2 1 2 -4 -2 -0 1 3 3 2 -2 -1
-7 -2 -2 5 7 -5 -2 8 10 5 -5 1 -2 1 -0 -0 -1 -2 -3 3 -12 -8 -9 12 3 2 -1 -1 -3 -3 -1 -0 -2 -0 -5 0 -1 -2 0 1 0 2 -1 2
5 -4 -1 -1 -7 1 -2 -3 -6 1 1 -7 5 -1 2 0 -2 1 -1 -1 -19 8 7 6 3 3 2 -2 -3 -2 -3 -1 1 0 4 3 0 1 1 1 -0 -1 2 1
1 -1 1 7 -12 -4 -1 -7 -2 1 2 -2 2 -3 -1 1 -2 -2 -1 0 -15 -10 4 2 2 4 0 -3 1 0 -7 -1 -12 -1 4 3 3 -0 1 0 2 3 -0 -1
-7 4 -4 -9 -5 -2 -10 -0 -2 -4 1 0 -2 4 3 4 -4 -1 -1 -1 -12 0 -1 5 3 2 0 -1 1 1 -1 -9 0 -10 0 1 -1 3 1 1 3 2 2 4
-4 -10 3 -12 -9 6 -8 -3 -1 1 -1 -2 3 -5 -4 3 -1 0 -2 -0 0 -5 3 -3 3 5 1 0 -1 -2 1 -4 -5 0 -0 -0 -0 -1 1 2 1 -1 2 3
Height
1499 1496 1487 1482 1487 1487 1489 1488 1483 1476 1474 1476 1474 1469 1465 1466 1466 1466 1464 1468 1469 1470 1471 1471 1469 1468 1468 1469 1472 1472 1473 1476 1475 1475 1477 1479 1482 1485 1487 1489 1491 1493 1495 1497
1497 1489 1485 1490 1490 1490 1487 1485 1479 1475 1474 1478 1468 1466 1461 1460 1458 1459 1465 1469 1471 1470 1469 1468 1466 1464 1465 1468 1469 1469 1470 1471 1470 1472 1473 1474 1477 1480 1483 1485 1485 1490 1493 1494
1489 1490 1492 1492 1489 1489 1483 1483 1480 1480 1474 1467 1461 1453 1445 1454 1458 1463 1466 1469 1470 1469 1468 1467 1466 1464 1463 1464 1465 1464 1465 1466 1467 1468 1466 1466 1469 1471 1474 1477 1480 1484 1487 1490
1490 1490 1490 1488 1488 1486 1483 1478 1481 1481 1477 1472 1470 1466 1447 1446 1453 1462 1469 1471 1471 1471 1470 1470 1468 1466 1464 1462 1461 1460 1461 1462 1462 1462 1461 1462 1461 1463 1465 1470 1472 1474 1477 1478
1484 1489 1488 1486 1480 1481 1478 1479 1478 1477 1474 1470 1468 1465 1443 1448 1453 1454 1468 1471 1474 1474 1471 1469 1466 1466 1464 1462 1460 1458 1457 1457 1457 1457 1458 1458 1459 1460 1460 1462 1466 1473 1477 1473
1486 1490 1489 1484 1483 1484 1479 1479 1472 1467 1471 1469 1450 1454 1444 1440 1450 1457 1464 1468 1470 1469 1470 1467 1465 1462 1462 1463 1459 1455 1455 1454 1453 1453 1453 1454 1456 1458 1460 1460 1460 1464 1465 1463
1484 1480 1479 1481 1481 1480 1486 1484 1479 1471 1469 1460 1454 1460 1444 1446 1454 1458 1462 1465 1468 1469 1468 1467 1465 1463 1461 1461 1460 1455 1453 1451 1451 1451 1449 1448 1449 1452 1452 1453 1454 1456 1457 1466
1481 1479 1475 1478 1478 1474 1471 1471 1479 1482 1466 1453 1450 1451 1437 1449 1457 1461 1462 1463 1464 1466 1466 1465 1464 1460 1459 1459 1459 1455 1453 1451 1449 1448 1448 1448 1447 1447 1450 1448 1449 1453 1455 1458
1475 1477 1476 1476 1476 1475 1473 1480 1470 1475 1466 1469 1452 1436 1439 1447 1453 1456 1459 1461 1461 1462 1463 1461 1461 1459 1454 1451 1450 1449 1449 1448 1449 1448 1447 1447 1447 1446 1447 1448 1449 1450 1452 1454
1473 1482 1470 1472 1477 1474 1472 1468 1481 1477 1484 1470 1440 1434 1436 1443 1445 1454 1457 1458 1457 1456 1457 1457 1455 1452 1450 1449 1447 1445 1446 1446 1446 1445 1445 1446 1446 1446 1445 1445 1445 1447 1449 1454
1476 1479 1469 1478 1471 1463 1470 1470 1474 1469 1462 1470 1461 1439 1444 1447 1451 1454 1456 1456 1454 1451 1450 1449 1449 1448 1444 1444 1443 1444 1444 1443 1443 1443 1442 1443 1444 1444 1443 1442 1443 1445 1447 1451
1478 1476 1472 1466 1465 1470 1467 1465 1465 1472 1468 1463 1468 1438 1446 1450 1454 1456 1454 1452 1450 1448 1445 1443 1442 1441 1439 1436 1437 1437 1438 1437 1437 1437 1431 1437 1439 1440 1440 1439 1440 1442 1444 1448
1478 1476 1480 1475 1475 1469 1467 1463 1465 1465 1471 1470 1475 1448 1446 1452 1453 1453 1450 1448 1446 1444 1442 1439 1437 1435 1434 1433 1431 1432 1431 1430 1430 1432 1431 1431 1433 1436 1434 1436 1437 1438 1441 1444
1478 1475 1469 1457 1458 1474 1473 1468 1466 1468 1473 1473 1462 1453 1456 1452 1450 1449 1448 1446 1442 1439 1437 1434 1433 1432 1430 1429 1429 1426 1425 1425 1424 1424 1423 1423 1426 1427 1426 1432 1432 1432 1435 1439
1483 1477 1472 1465 1465 1467 1468 1466 1466 1469 1472 1475 1461 1451 1441 1445 1446 1445 1443 1441 1438 1434 1432 1431 1429 1428 1429 1427 1428 1424 1421 1419 1418 1417 1418 1417 1417 1419 1419 1421 1425 1426 1429 1433
1479 1473 1471 1471 1467 1464 1458 1456 1456 1456 1455 1457 1455 1445 1445 1441 1441 1440 1439 1437 1433 1430 1426 1426 1426 1426 1425 1424 1424 1422 1419 1417 1414 1412 1412 1411 1411 1412 1412 1413 1416 1419 1421 1425
1475 1474 1474 1465 1458 1459 1455 1444 1442 1441 1443 1445 1446 1441 1439 1439 1440 1438 1435 1434 1429 1425 1422 1422 1424 1423 1421 1420 1419 1416 1414 1412 1409 1408 1406 1404 1404 1405 1406 1408 1410 1412 1414 1418
1467 1469 1471 1462 1456 1459 1432 1433 1433 1436 1437 1434 1435 1438 1440 1443 1440 1437 1434 1430 1427 1424 1422 1421 1420 1419 1418 1417 1414 1411 1409 1407 1405 1403 1401 1398 1397 1398 1399 1401 1402 1405 1409 1413
1466 1464 1463 1462 1448 1434 1430 1432 1434 1434 1431 1439 1440 1442 1442 1440 1438 1432 1430 1430 1428 1425 1422 1419 1416 1414 1414 1412 1410 1406 1404 1402 1400 1398 1395 1394 1393 1393 1394 1396 1398 1400 1404 1408
1458 1462 1459 1454 1449 1434 1426 1435 1439 1441 1429 1434 1440 1439 1438 1438 1434 1428 1431 1426 1423 1422 1419 1415 1413 1412 1411 1408 1405 1403 1399 1397 1396 1394 1391 1390 1391 1390 1392 1394 1396 1398 1401 1405
1452 1452 1448 1444 1443 1427 1423 1435 1440 1440 1427 1434 1435 1434 1433 1432 1434 1429 1426 1421 1419 1417 1412 1410 1409 1408 1407 1403 1400 1398 1395 1393 1391 1391 1389 1389 1389 1389 1390 1392 1393 1396 1398 1401
1435 1439 1440 1441 1435 1432 1430 1435 1434 1428 1431 1431 1431 1429 1428 1427 1426 1425 1423 1418 1413 1411 1408 1406 1404 1404 1402 1398 1397 1394 1391 1389 1388 1388 1388 1388 1388 1389 1389 1390 1392 1395 1398 1400
1434 1427 1425 1430 1421 1426 1430 1430 1430 1428 1427 1426 1426 1424 1423 1421 1419 1418 1416 1410 1407 1407 1404 1401 1399 1399 1397 1395 1393 1391 1388 1386 1385 1386 1386 1387 1387 1388 1389 1390 1392 1393 1396 1399
1428 1433 1431 1432 1421 1423 1425 1425 1424 1423 1422 1422 1420 1419 1417 1414 1414 1411 1408 1405 1402 1399 1399 1396 1394 1394 1393 1391 1390 1387 1386 1387 1385 1384 1384 1384 1386 1387 1388 1390 1391 1392 1394 1397
1422 1429 1426 1421 1421 1422 1421 1419 1419 1418 1417 1416 1415 1412 1410 1409 1407 1405 1402 1398 1396 1392 1391 1390 1389 1388 1388 1387 1387 1385 1384 1386 1385 1384 1384 1384 1385 1386 1387 1389 1390 1392 1394 1397
1419 1417 1419 1415 1417 1416 1415 1415 1415 1413 1411 1410 1409 1408 1405 1403 1401 1398 1395 1393 1390 1385 1385 1385 1385 1384 1384 1384 1384 1383 1383 1383 1384 1384 1383 1383 1384 1385 1387 1388 1389 1391 1393 1396